Home   Weather   Opole   Past weeks

Flag for Poland Past Weather in Opole, Poland — Yesterday and Last 2 Weeks

Now
43 °F

Light rain. Broken clouds.


Feels Like: 38 °F
Forecast: 40 / 57 °F
Wind: 8 mph from North

Location: Wroclaw Ii

Current Time: Apr 28, 2017 at 6:09:15 pm

Latest Report: Apr 28, 2017 at 5:30 pm


Visibility: 5 mi

Pressure: 29.86 "Hg

Humidity: 87%

Dew Point: 39 °F

Location of OpoleLocation

Past Weather in Opole — Graph

°F

Opole Temperature Yesterday

Maximum temperature yesterday: 50 °F (at 2:00 pm)
Minimum temperature yesterday: 37 °F (at 12:00 am)
Average temperature yesterday: 42 °F

High & Low Weather Summary for the Past Weeks

 TemperatureHumidityPressure
High64 °F (Apr 25, 1:30 pm)100% (Apr 16, 10:00 pm)30.48 "Hg (Apr 16, 10:00 pm)
Low30 °F (Apr 19, 6:30 am)34% (Apr 25, 1:30 pm)29.62 "Hg (Apr 25, 9:00 am)
Average43 °F72%30.01 "Hg
* Reported Apr 13 5:00 pm — Apr 28 5:00 pm, Opole, Weather by CustomWeather, © 2017

Note: Actual official high and low records may vary slightly from our data, if they occured in-between our weather recording intervals... More about our weather records

Advertising

Opole Weather History for the Previous 24 Hours

Scroll right to see more
 ConditionsComfort  
Time TempWeatherWind HumidityBarometerVisibility
5:00 pm
Fri, Apr 28
43 °FBroken clouds.9 mph87%29.86 "HgN/A
4:30 pm43 °FBroken clouds.8 mph87%29.86 "Hg6 mi
4:00 pm41 °FBroken clouds.12 mph87%29.86 "HgN/A
3:00 pm43 °FLight rain. Partly sunny.9 mph87%29.86 "Hg5 mi
2:30 pm43 °FLight rain. Partly sunny.8 mph81%29.86 "Hg5 mi
2:00 pm41 °FLight rain. Partly sunny.8 mph87%29.86 "HgN/A
1:30 pm43 °FLight rain. Broken clouds.9 mph81%29.86 "Hg5 mi
1:00 pm41 °FLight rain. Partly sunny.8 mph87%29.86 "HgN/A
12:30 pm41 °FLight rain. Broken clouds.10 mph87%29.86 "HgN/A
12:00 pm41 °FLight rain. Partly sunny.12 mph87%29.86 "HgN/A
11:30 am41 °FLight rain. Partly sunny.12 mph87%29.86 "HgN/A
11:00 am41 °FLight rain. Partly sunny.12 mph87%29.86 "HgN/A
10:30 am41 °FLight rain. Partly sunny.9 mph87%29.86 "HgN/A
9:30 am37 °FLight rain. Partly sunny.9 mph93%29.89 "Hg5 mi
9:00 am37 °FLight rain. Partly sunny.8 mph93%29.89 "Hg4 mi
8:30 am37 °FRain. Partly sunny.10 mph93%29.89 "Hg4 mi
8:00 am37 °FRain. Fog.9 mph87%29.89 "Hg3 mi
7:30 am37 °FRain. Fog.8 mph87%29.89 "Hg3 mi
7:00 am37 °FRain. Fog.12 mph93%29.89 "Hg3 mi
6:30 am37 °FRain. Fog.12 mph93%29.89 "Hg3 mi
6:00 am39 °FRain. Partly sunny.12 mph87%29.92 "Hg4 mi
5:30 am39 °FRain. Passing clouds.14 mph87%29.89 "Hg4 mi
5:00 am41 °FLight rain. Passing clouds.9 mph87%29.92 "Hg4 mi
4:30 am41 °FLight rain. Passing clouds.6 mph87%29.92 "Hg4 mi
4:00 am41 °FLight rain. Passing clouds.3 mph87%29.92 "HgN/A
3:30 am41 °FLight rain. Passing clouds.7 mph87%29.92 "HgN/A
3:00 am41 °FLight rain. Passing clouds.5 mph93%29.92 "HgN/A
2:30 am41 °FLight rain. Partly cloudy.5 mph93%29.95 "Hg4 mi
2:00 am41 °FPartly cloudy.5 mph93%29.95 "HgN/A
1:30 am41 °FPassing clouds.3 mph93%29.95 "HgN/A
1:00 am41 °FPassing clouds.1 mph93%29.98 "HgN/A
12:30 am41 °FPassing clouds.2 mph93%29.98 "HgN/A
12:00 am41 °FPassing clouds.3 mph93%29.98 "HgN/A
11:30 pm
Thu, Apr 27
41 °FPassing clouds.6 mph93%29.98 "HgN/A
11:00 pm41 °FClear.5 mph93%29.98 "Hg10 mi
10:30 pm41 °FClear.5 mph93%29.98 "Hg10 mi
10:00 pm41 °FClear.8 mph93%29.98 "Hg10 mi
9:30 pm41 °FPassing clouds.6 mph87%29.98 "HgN/A
9:00 pm43 °FPassing clouds.6 mph81%29.98 "HgN/A
8:30 pm43 °FPassing clouds.8 mph81%29.98 "HgN/A
8:00 pm45 °FMore clouds than sun.6 mph81%29.98 "HgN/A
7:30 pm46 °FBroken clouds.8 mph76%29.98 "HgN/A
7:00 pm46 °FPartly sunny.9 mph76%29.98 "HgN/A
6:30 pm46 °FPartly sunny.9 mph71%29.98 "HgN/A
6:00 pm48 °FPartly sunny.8 mph62%29.98 "HgN/A
Weather by CustomWeather, © 2017

See weather overviewHow to use our weather pages